Powrót do katalogu

STARLINK-36506

AktywnyŁącznośćVLEO
NORAD 67414·PAYLOAD·🇺🇸 United States

Wystrzelony Jan 12, 2026 z Cape Canaveral Space Force Station

Loading…

Następne Przeloty (najbliższe 24 godziny)

TLE

ŚwieżeSource: CelesTrak SupGP

Epoka: Sep 15, 2026, 04:09 UTC

1 67414C 26005L   26258.17340278 -.00033542  00000+0 -12151-2 0  2588
2 67414  43.0004 247.6886 0000970 269.6982 237.2513 15.27589356    19

Śledź STARLINK-36506 w czasie rzeczywistym z AllMySat

Download on the App Store